Simultaneous Nadir Overpasses (SNOs) Predictions

Prediction of SNOs between NOAA-19 and NPP Satellite Orbit:

Table of predicted SNOs for the next 14.0 days since TLE Epoch: 3/14/2017
Index Date (NOAA-19) Time (NOAA-19) Lat,Lon (NOAA-19) SZA (NOAA-19 ) Date (NPP) Time (NPP) Lat,Lon (NPP) SZA (NPP ) Distance(km) Time Diff (sec)
1 03/16/2017 19:48:14 80.88,-168.11 85.93 03/16/2017 19:49:26 80.88,-168.21 85.91 1.67 72
2 03/16/2017 20:39:10 -80.88, -0.98 94.07 03/16/2017 20:40:11 -80.88, -0.91 94.11 1.27 61
3 03/16/2017 21:30:16 80.88, 166.27 85.92 03/16/2017 21:30:56 80.88, 166.36 85.89 1.75 40
4 03/16/2017 22:21:11 -80.88, -26.22 94.13 03/16/2017 22:21:41 -80.89, -26.34 94.13 2.06 30
5 03/16/2017 23:12:17 80.88, 141.02 85.86 03/16/2017 23:12:26 80.89, 140.93 85.87 1.66 9
6 03/17/2017 00:03:13 -80.88, -51.84 94.15 03/17/2017 00:03:11 -80.89, -51.77 94.15 1.44 2
7 03/17/2017 00:54:19 80.88, 115.41 85.84 03/17/2017 00:53:56 80.89, 115.50 85.85 1.92 23
8 03/17/2017 01:45:14 -80.89, -77.09 94.20 03/17/2017 01:44:41 -80.89, -77.20 94.17 2.06 33
9 03/17/2017 02:36:20 80.89, 90.16 85.78 03/17/2017 02:35:26 80.89, 90.07 85.83 1.69 54




NCC Satellite Simultaneous Nadir Overpasses (SNOs) Prediction Service
